Regional Weather Roundup
Issued by NWS Jackson, KY

Home | Current Version | Previous Version | Text Only | Print | Product List | Glossary Off
Versions: 1 2 3 4 5 6 7 8 9 10 11 12 13 14 15 16 17 18 19 20 21 22 23 24 25 26 27 28 29 30 31 32 33 34 35 36 37 38 39 40 41 42 43 44 45 46 47 48 49 50

000
ASUS43 KJKL 312210
RWRJKL

EAST KENTUCKY HOURLY WEATHER ROUNDUP
NATIONAL WEATHER SERVICE JACKSON KY
600 PM EDT THU JUL 31 2014

NOTE: "FAIR" INDICATES FEW OR NO CLOUDS BELOW 12,000 FEET WITH
NO SIGNIFICANT WEATHER AND/OR OBSTRUCTIONS TO VISIBILITY.

* THESE REPORTS ARE NOT UNDER NWS QUALITY CONTROL AND MAY NOT
  REPORT WEATHER SUCH AS PRECIPITATION AND FOG.

KYZ079-080-083-085-087-088-110-112-115-119-120-312300
...EASTERN KENTUCKY...

CITY           SKY/WX    TMP DP  RH WIND       PRES   REMARKS
JACKSON        SUNNY     80  56  43 CALM      30.11F
LONDON         MOSUNNY   82  55  39 N6        30.11S
SOMERSET*      SUNNY     81  54  39 CALM      30.10S
MONTICELLO*    SUNNY     82  62  50 CALM      30.11S
WILLIAMSBURG*  SUNNY     81  57  44 CALM      30.10S
MIDDLESBORO*   MOSUNNY   82  59  44 SW5       30.10S
HARLAN APT*    PTCLDY    79  59  50 MISG      30.11F
HAZARD APT*    CLEAR     79  59  50 NW3       30.11
BLACK MTN*       N/A     70  59  68 SW2         N/A
PIKEVILLE APT* MOSUNNY   77  59  53 N3        30.12S
BIG SANDY*     CLEAR     80  58  46 CALM      30.11S
MOREHEAD APT*    N/A     81  57  44 SW3       30.12S
$$

KYZ035-036-041-042-044-050-067-078-099-312300
...CENTRAL KENTUCKY...

CITY           SKY/WX    TMP DP  RH WIND       PRES   REMARKS
MT STERLING*   SUNNY     81  59  47 W3        30.11S
FLEMING/MASON* SUNNY     82  57  42 SW3       30.10S
DANVILLE*      MOSUNNY   79  55  44 CALM      30.10S
RICHMOND*      MOSUNNY   82  54  36 CALM      30.10R
LEXINGTON      SUNNY     82  57  42 W5        30.09S
FRANKFORT      SUNNY     81  52  36 VRB5      30.07F
$$

KYZ091>093-OHZ055-061-077-WVZ005-015-034-035-042-312300
...SOUTHERN OHIO/WEST VIRGINIA...

CITY           SKY/WX    TMP DP  RH WIND       PRES   REMARKS
COVINGTON      PTSUNNY   81  59  47 W6        30.08S
COLUMBUS       MOSUNNY   80  57  45 W8        30.07S
DAYTON         MOSUNNY   81  58  45 W13G18    30.09S
WILMINGTON     SUNNY     80  57  45 W8        30.09R
HUNTINGTON     SUNNY     80  56  43 VRB5      30.08F
CHARLESTON     MOSUNNY   82  56  40 W6        30.09F
PINEVILLE*     MOSUNNY   78  65  64 MISG      30.18S
BECKLEY        MOSUNNY   78  51  38 W7        30.17S
BLUEFIELD      CLOUDY    76  56  49 W6        30.19R
$$

VAZ002-007-008-TNZ017-027-036-066-071-312300
...SOUTHWEST VIRGINIA/EAST TENNESSEE...

CITY           SKY/WX    TMP DP  RH WIND       PRES   REMARKS
WISE*          MOSUNNY   73  54  49 S5        30.18S
JONESVILLE*    PTCLDY    81  57  44 CALM      30.12F
ABINGDON*      PTSUNNY   76  65  69 CALM      30.16S
BRISTOL        PTSUNNY   78  56  46 S10       30.12S
KNOXVILLE      CLOUDY    80  59  48 CALM      30.08S
OAK RIDGE      PTSUNNY   82  57  42 VRB5      30.09S
CROSSVILLE     CLOUDY    76  58  53 W5        30.13R
NASHVILLE      PTSUNNY   84  55  36 CALM      30.06S
$$

...KEY TO REMARKS...
VSB - VISIBILITY IN MILES
WCI - WIND CHILL INDEX
HX  - HEAT INDEX

$$



USA.gov is the U.S. government's official web portal to all federal, state and local government web resources and services.